Location: Unspecified
(0.0000°N, 0.0000°E)
Time: 13:21:08
(UTC+00:00)

ISS - Pass Details

Date: 17 September 2019
Orbit: 411 x 421 km, 51.6° (Epoch: 18 September)

Event Time Altitude Azimuth Distance (km) Brightness Sun altitude
Rises 18:23:49 0° 241° (WSW) 2,342 1.2 -7.3°
Reaches altitude 10° 18:26:23 10° 262° (W) 1,476 0.6 -8.0°
Maximum altitude 18:28:40 17° 306° (NW) 1,111 -0.7 -8.5°
Drops below altitude 10° 18:30:56 10° 349° (N) 1,468 -0.8 -9.1°
Sets 18:33:30 0° 10° (N) 2,323 -0.1 -9.7°
